Ft Riley, KS

4:46 PM CDT on April 27, 2017 (GMT -0500)
Marshall Army Air Field

Weather History for KFRI - March, 2014

Change the Weather History Date:

Thursday, March 6, 2014

  Actual Average (KMHK) Record (KMHK)
Temperature  
Mean Temperature 37 °F -  
Max Temperature 48 °F 46 °F 81 °F (2017)
Min Temperature 26 °F 22 °F 6 °F (2003)
Degree Days  
Heating Degree Days 28    
Moisture  
Dew Point 29 °F    
Average Humidity 94    
Maximum Humidity 100    
Minimum Humidity 55    
Precipitation  
Precipitation 0.00 in - - ()
Sea Level Pressure  
Sea Level Pressure 30.17 in    
Wind  
Wind Speed 6 mph (South)    
Max Wind Speed 17 mph    
Max Gust Speed -    
Visibility 4 miles    
Events      
Averages and records for this station are not official NWS values.
T = Trace of Precipitation, MM = Missing Value Source: NWS Daily Summary

Daily Weather History Graph

Daily Weather History Graph

Search for Another Location

Airport or City:

Trip Planner

Search our weather history database for the weather conditions in past years. The results will help you decide how hot, cold, wet, or windy it might be!

Date:

Astronomy

Mar. 06, 2014 Rise Set
Actual Time 6:52 AM CST 6:24 PM CST
Civil Twilight 6:25 AM CST 6:51 PM CST
Nautical Twilight 5:54 AM CST 7:22 PM CST
Astronomical Twilight 5:23 AM CST 7:53 PM CST
Moon 10:03 AM CST (3/6) No Moon Set
Length of Visible Light 12h 26m
Length of Day
11h 32m
Waxing Crescent, 32% of the Moon is Illuminated
Mar 6
Waxing Crescent
Mar 8
First Quarter
Mar 16
Full
Mar 23
Last Quarter
Mar 30
New

Hourly Weather History & Observations

Time (CST) Temp. Windchill Dew Point Humidity Pressure Visibility Wind Dir Wind Speed Gust Speed Precip Events Conditions
12:18 AM 28.4 °F - 28.4 °F 100% 30.28 in 8.0 mi Variable 1.2 mph - N/A   Overcast
12:58 AM 28.6 °F 23.5 °F 28.4 °F 99% 30.29 in 7.0 mi SE 4.6 mph - N/A   Overcast
1:58 AM 27.7 °F - 27.5 °F 99% 30.29 in 6.0 mi SE 2.3 mph - N/A   Overcast
2:08 AM 28.4 °F 24.6 °F 28.4 °F 100% 30.26 in 6.0 mi SSE 3.5 mph - N/A   Overcast
2:33 AM 26.6 °F - 26.6 °F 100% 30.26 in 5.0 mi South 2.3 mph - N/A   Overcast
2:58 AM 27.5 °F - 27.3 °F 99% 30.30 in 5.0 mi SSE 1.2 mph - N/A   Overcast
3:53 AM 26.6 °F - 26.6 °F 100% 30.24 in 4.0 mi SSE 2.3 mph - N/A   Overcast
3:58 AM 27.3 °F - 27.3 °F 100% 30.27 in 4.0 mi South 2.3 mph - N/A   Overcast
4:33 AM 26.6 °F - 26.6 °F 100% 30.24 in 3.0 mi South 2.3 mph - N/A   Overcast
4:58 AM 27.1 °F 20.7 °F 27.1 °F 100% 30.26 in 3.0 mi South 5.8 mph - N/A   Overcast
5:08 AM 26.6 °F - 26.6 °F 100% 30.24 in 2.5 mi South 2.3 mph - N/A   Overcast
5:53 AM 26.6 °F 20.0 °F 26.6 °F 100% 30.22 in 2.0 mi SSE 5.8 mph - N/A   Overcast
5:58 AM 27.0 °F 23.0 °F 27.0 °F 100% 30.25 in 2.0 mi SSE 3.5 mph - N/A   Overcast
6:03 AM 26.6 °F 21.2 °F 26.6 °F 100% 30.23 in 2.5 mi South 4.6 mph - N/A   Overcast
6:48 AM 26.6 °F 21.2 °F 26.6 °F 100% 30.23 in 2.0 mi South 4.6 mph - N/A   Overcast
6:53 AM 26.6 °F 18.2 °F 26.6 °F 100% 30.23 in 1.8 mi South 8.1 mph - N/A   Overcast
6:58 AM 26.6 °F 20.0 °F 26.6 °F 100% 30.26 in 1.2 mi SSW 5.8 mph - N/A   Overcast
7:03 AM 26.6 °F 21.2 °F 26.6 °F 100% 30.23 in 1.0 mi South 4.6 mph - N/A   Mist
7:13 AM 26.6 °F 21.2 °F 26.6 °F 100% 30.23 in 1.2 mi SW 4.6 mph - N/A   Overcast
7:43 AM 26.6 °F 19.1 °F 26.6 °F 100% 30.21 in 1.0 mi South 6.9 mph - N/A   Mist
7:58 AM 27.1 °F 20.7 °F 27.1 °F 100% 30.23 in 1.0 mi SSW 5.8 mph - N/A   Mist
8:08 AM 26.6 °F 21.2 °F 26.6 °F 100% 30.19 in 1.2 mi SSW 4.6 mph - N/A   Overcast
8:18 AM 26.6 °F 19.1 °F 26.6 °F 100% 30.20 in 1.0 mi South 6.9 mph - N/A   Mist
8:33 AM 26.6 °F 17.5 °F 26.6 °F 100% 30.20 in 1.2 mi South 9.2 mph - N/A   Overcast
8:38 AM 26.6 °F 19.1 °F 26.6 °F 100% 30.20 in 1.0 mi South 6.9 mph - N/A   Mist
8:48 AM 26.6 °F 19.1 °F 26.6 °F 100% 30.20 in 1.2 mi South 6.9 mph - N/A   Overcast
8:53 AM 26.6 °F 19.1 °F 26.6 °F 100% 30.20 in 1.5 mi SSW 6.9 mph - N/A   Overcast
8:58 AM 27.5 °F 20.2 °F 27.5 °F 100% 30.25 in 1.5 mi SW 6.9 mph - N/A   Overcast
9:03 AM 28.4 °F 20.4 °F 28.4 °F 100% 30.21 in 1.5 mi South 8.1 mph - N/A   Overcast
9:08 AM 28.4 °F 21.2 °F 28.4 °F 100% 30.21 in 2.0 mi SSW 6.9 mph - N/A   Overcast
9:13 AM 28.4 °F 22.2 °F 28.4 °F 100% 30.21 in 2.5 mi South 5.8 mph - N/A   Overcast
9:18 AM 28.4 °F 20.4 °F 28.4 °F 100% 30.21 in 2.0 mi South 8.1 mph - N/A   Overcast
9:43 AM 28.4 °F 20.4 °F 28.4 °F 100% 30.20 in 2.0 mi SSW 8.1 mph - N/A   Overcast
9:53 AM 28.4 °F 20.4 °F 28.4 °F 100% 30.20 in 2.5 mi South 8.1 mph - N/A   Overcast
9:58 AM 28.4 °F 22.2 °F 28.4 °F 100% 30.23 in 2.5 mi South 5.8 mph - N/A   Overcast
10:08 AM 28.4 °F 20.4 °F 28.4 °F 100% 30.19 in 3.0 mi South 8.1 mph - N/A   Overcast
10:58 AM 29.7 °F 20.7 °F 29.7 °F 100% 30.22 in 5.0 mi SSE 10.4 mph - N/A   Overcast
11:03 AM 30.2 °F 21.3 °F 30.2 °F 100% 30.18 in 5.0 mi SSE 10.4 mph - N/A   Overcast
11:28 AM 32.0 °F 23.6 °F 32.0 °F 100% 30.18 in 5.0 mi South 10.4 mph - N/A   Overcast
11:43 AM 32.0 °F 22.1 °F 32.0 °F 100% 30.17 in 6.0 mi South 13.8 mph - N/A   Overcast
11:58 AM 32.4 °F 24.0 °F 32.2 °F 99% 30.20 in 2.5 mi South 10.4 mph - N/A   Overcast
12:08 PM 32.0 °F 23.6 °F 32.0 °F 100% 30.17 in 2.5 mi South 10.4 mph - N/A   Overcast
12:58 PM 34.5 °F 26.2 °F 33.3 °F 95% 30.16 in 2.5 mi SSE 11.5 mph - N/A   Overcast
1:08 PM 35.6 °F 26.6 °F 32.0 °F 87% 30.12 in 2.5 mi SSE 13.8 mph - N/A   Overcast
1:38 PM 37.4 °F 29.8 °F 32.0 °F 81% 30.11 in 2.5 mi South 11.5 mph - N/A   Overcast
1:43 PM 37.4 °F 29.8 °F 32.0 °F 81% 30.11 in 3.0 mi SSE 11.5 mph - N/A   Overcast
1:58 PM 37.8 °F 30.7 °F 32.9 °F 83% 30.13 in 3.0 mi SSE 10.4 mph - N/A   Overcast
2:13 PM 41.0 °F 33.5 °F 32.0 °F 70% 30.07 in 8.0 mi SSE 13.8 mph - N/A   Scattered Clouds
2:58 PM 45.5 °F 39.6 °F 33.1 °F 62% 30.06 in 10.0 mi South 12.7 mph - N/A   Clear
3:58 PM 48.4 °F - 33.1 °F 56% 30.03 in 10.0 mi South 11.5 mph - N/A   Clear
4:58 PM 48.6 °F - 33.1 °F 55% 29.99 in 10.0 mi South 17.3 mph - N/A   Clear
5:58 PM 46.8 °F - 33.1 °F 59% 29.98 in 10.0 mi South 10.4 mph - N/A   Clear
6:58 PM 42.3 °F 37.3 °F 33.1 °F 70% 29.96 in 10.0 mi South 8.1 mph - N/A   Clear
7:58 PM 39.0 °F 34.0 °F 33.3 °F 80% 29.96 in 10.0 mi SSW 6.9 mph - N/A   Clear
8:58 PM 36.1 °F 30.6 °F 33.1 °F 89% 29.96 in 10.0 mi South 6.9 mph - N/A   Clear
9:58 PM 36.9 °F 30.1 °F 34.5 °F 91% 29.96 in 10.0 mi SSW 9.2 mph - N/A   Clear
10:58 PM 39.2 °F 32.5 °F 36.3 °F 89% 29.91 in 10.0 mi South 10.4 mph - N/A   Clear
11:58 PM 39.9 °F 32.5 °F 36.0 °F 86% 29.90 in 10.0 mi SSW 12.7 mph - N/A   Clear